Terminal Aerodrome Forecast
Issued by NWS Denver/Boulder, CO

Home | Current Version | Previous Version | Text Only | Print | Product List | Glossary On
Versions: 1 2 3 4 5 6 7 8 9 10 11 12 13 14 15 16 17 18 19 20 21 22 23 24 25 26 27 28 29 30 31 32 33 34 35 36 37 38 39 40 41 42 43 44 45 46 47 48 49 50
000
FTUS45 KBOU 190903 AAA
TAFDEN
TAF AMD
KDEN 190903Z 1909/2012 22006KT 6SM BR FEW100 SCT200
     FM191400 24006KT P6SM FEW150
     FM191800 17006KT P6SM FEW150 FEW220
     FM200200 20007KT P6SM FEW150 SCT200=

USA.gov is the U.S. government's official web portal to all federal, state and local government web resources and services.